Hourly Weather Al-Jahra

Today, 2 December, Wednesday

Time Temperature Precipitation Wind Pressure Humidity
00:00 +18°C° 0.5 mm 1 mps 758 mmHg 82%
01:00 +18°C° 0 mm 1 mps 758 mmHg 82%
02:00 +18°C° 0 mm 1 mps 758 mmHg 82%
03:00 +18°C° 0 mm 1 mps 758 mmHg 82%
04:00 +18°C° 0 mm 1 mps 758 mmHg 82%
05:00 +18°C° 0 mm 1 mps 758 mmHg 82%
06:00 +18°C° 0 mm 1 mps 758 mmHg 82%
07:00 +19°C° 0 mm 1 mps 758 mmHg 78%
08:00 +19°C° 0 mm 2 mps 758 mmHg 75%
09:00 +20°C° 0 mm 2 mps 759 mmHg 71%
10:00 +20°C° 0 mm 2 mps 759 mmHg 68%
11:00 +21°C° 0 mm 2 mps 758 mmHg 65%
12:00 +23°C° 0 mm 2 mps 758 mmHg 62%
13:00 +22°C° 0.5 mm 3 mps 757 mmHg 64%
14:00 +22°C° 0.5 mm 3 mps 757 mmHg 65%
15:00 +22°C° 0.5 mm 4 mps 756 mmHg 66%
16:00 +22°C° 0.8 mm 4 mps 756 mmHg 71%
17:00 +21°C° 0.8 mm 4 mps 757 mmHg 76%
18:00 +21°C° 0.8 mm 4 mps 757 mmHg 81%
19:00 +21°C° 0.4 mm 4 mps 757 mmHg 82%
20:00 +20°C° 0.4 mm 3 mps 757 mmHg 84%
21:00 +20°C° 0.4 mm 3 mps 757 mmHg 86%
22:00 +20°C° 0.3 mm 3 mps 757 mmHg 87%
23:00 +20°C° 0.3 mm 3 mps 757 mmHg 88%

Tomorrow, 3 December, Thursday

Time Temperature Precipitation Wind Pressure Humidity
00:00 +20°C° 0.3 mm 3 mps 757 mmHg 89%
01:00 +20°C° 1.1 mm 3 mps 757 mmHg 90%
02:00 +20°C° 1.1 mm 3 mps 757 mmHg 91%
03:00 +19°C° 1.1 mm 3 mps 756 mmHg 91%
04:00 +19°C° 1.1 mm 2 mps 757 mmHg 92%
05:00 +19°C° 1.1 mm 2 mps 757 mmHg 92%
06:00 +19°C° 1.1 mm 2 mps 757 mmHg 92%
07:00 +20°C° 1.6 mm 2 mps 758 mmHg 91%
08:00 +20°C° 1.6 mm 3 mps 758 mmHg 90%
09:00 +20°C° 1.6 mm 3 mps 758 mmHg 89%
10:00 +21°C° 0.3 mm 3 mps 758 mmHg 87%
11:00 +21°C° 0.3 mm 3 mps 758 mmHg 86%
12:00 +23°C° 0.3 mm 2 mps 757 mmHg 84%
13:00 +22°C° 0.9 mm 3 mps 757 mmHg 81%
14:00 +24°C° 0.9 mm 3 mps 757 mmHg 79%
15:00 +24°C° 0.9 mm 3 mps 756 mmHg 76%
16:00 +24°C° 0.3 mm 3 mps 756 mmHg 79%
17:00 +22°C° 0.3 mm 3 mps 757 mmHg 81%
18:00 +22°C° 0.3 mm 3 mps 757 mmHg 84%
19:00 +22°C° 0.1 mm 3 mps 757 mmHg 85%
20:00 +23°C° 0.1 mm 2 mps 757 mmHg 86%
21:00 +21°C° 0.1 mm 2 mps 757 mmHg 87%
22:00 +21°C° 0.2 mm 2 mps 757 mmHg 87%
23:00 +22°C° 0.2 mm 1 mps 757 mmHg 88%

Day after tomorrow, 4 December, Friday

Time Temperature Precipitation Wind Pressure Humidity
00:00 +22°C° 0.2 mm 1 mps 757 mmHg 89%
01:00 +21°C° 0.7 mm 1 mps 756 mmHg 90%
02:00 +21°C° 0.7 mm 1 mps 756 mmHg 90%
03:00 +21°C° 0.7 mm 1 mps 756 mmHg 91%
04:00 +21°C° 1.8 mm 1 mps 756 mmHg 91%
05:00 +21°C° 1.8 mm 1 mps 756 mmHg 91%
06:00 +21°C° 1.8 mm 1 mps 757 mmHg 91%
07:00 +20°C° 1 mm 2 mps 757 mmHg 89%
08:00 +20°C° 1 mm 2 mps 757 mmHg 88%
09:00 +21°C° 1 mm 2 mps 757 mmHg 86%
10:00 +21°C° 0.9 mm 2 mps 757 mmHg 84%
11:00 +22°C° 0.9 mm 1 mps 757 mmHg 82%
12:00 +23°C° 0.9 mm 1 mps 756 mmHg 79%
13:00 +23°C° 0.3 mm 1 mps 756 mmHg 78%
14:00 +23°C° 0.3 mm 2 mps 756 mmHg 78%
15:00 +23°C° 0.3 mm 2 mps 755 mmHg 77%
16:00 +23°C° 0.2 mm 2 mps 755 mmHg 80%
17:00 +23°C° 0.2 mm 2 mps 756 mmHg 82%
18:00 +21°C° 0.2 mm 3 mps 756 mmHg 85%
19:00 +21°C° 1.2 mm 2 mps 756 mmHg 86%
20:00 +21°C° 1.2 mm 2 mps 756 mmHg 88%
21:00 +22°C° 1.2 mm 1 mps 756 mmHg 89%
22:00 +22°C° 0.1 mm 1 mps 756 mmHg 89%
23:00 +22°C° 0.1 mm 1 mps 756 mmHg 89%

5 December, Saturday

Time Temperature Precipitation Wind Pressure Humidity
00:00 +22°C° 0.1 mm 1 mps 756 mmHg 89%
01:00 +22°C° 0.1 mm 1 mps 755 mmHg 89%
02:00 +21°C° 0.1 mm 1 mps 755 mmHg 89%
03:00 +21°C° 0.1 mm 1 mps 755 mmHg 89%
04:00 +21°C° 0 mm 1 mps 755 mmHg 88%
05:00 +19°C° 0 mm 0 mps 755 mmHg 88%
06:00 +19°C° 0 mm 0 mps 755 mmHg 88%
07:00 +22°C° 0.1 mm 1 mps 755 mmHg 86%
08:00 +22°C° 0.1 mm 1 mps 755 mmHg 84%
09:00 +22°C° 0.1 mm 1 mps 755 mmHg 81%
10:00 +23°C° 0.1 mm 1 mps 755 mmHg 79%
11:00 +23°C° 0.1 mm 1 mps 754 mmHg 76%
12:00 +24°C° 0.1 mm 2 mps 754 mmHg 73%
13:00 +24°C° 0.4 mm 2 mps 753 mmHg 75%
14:00 +22°C° 0.4 mm 3 mps 752 mmHg 77%
15:00 +22°C° 0.4 mm 3 mps 752 mmHg 79%
16:00 +22°C° 0.7 mm 3 mps 752 mmHg 81%
17:00 +21°C° 0.7 mm 4 mps 752 mmHg 84%
18:00 +21°C° 0.7 mm 4 mps 752 mmHg 86%
19:00 +21°C° 0.5 mm 3 mps 752 mmHg 87%
20:00 +21°C° 0.5 mm 2 mps 752 mmHg 87%
21:00 +22°C° 0.5 mm 1 mps 752 mmHg 87%
22:00 +21°C° 0.4 mm 1 mps 752 mmHg 89%
23:00 +20°C° 0.4 mm 2 mps 752 mmHg 90%

6 December, Sunday

Time Temperature Precipitation Wind Pressure Humidity
00:00 +20°C° 0.4 mm 2 mps 752 mmHg 91%
01:00 +19°C° 0 mm 3 mps 752 mmHg 89%
02:00 +19°C° 0 mm 4 mps 752 mmHg 88%
03:00 +19°C° 0 mm 5 mps 753 mmHg 86%
04:00 +19°C° 0 mm 5 mps 753 mmHg 83%
05:00 +17°C° 0 mm 5 mps 753 mmHg 79%
06:00 +17°C° 0 mm 5 mps 754 mmHg 76%
07:00 +19°C° 0 mm 5 mps 754 mmHg 72%
08:00 +19°C° 0 mm 5 mps 755 mmHg 69%
09:00 +19°C° 0 mm 5 mps 755 mmHg 65%
10:00 +20°C° 0 mm 6 mps 755 mmHg 60%
11:00 +21°C° 0 mm 6 mps 755 mmHg 56%
12:00 +21°C° 0 mm 6 mps 755 mmHg 51%
13:00 +21°C° 0 mm 6 mps 755 mmHg 47%
14:00 +22°C° 0 mm 6 mps 755 mmHg 43%
15:00 +22°C° 0 mm 6 mps 754 mmHg 39%
16:00 +21°C° 0 mm 5 mps 755 mmHg 40%
17:00 +21°C° 0 mm 5 mps 755 mmHg 42%
18:00 +20°C° 0 mm 4 mps 756 mmHg 44%
19:00 +19°C° 0 mm 4 mps 756 mmHg 45%
20:00 +19°C° 0 mm 4 mps 756 mmHg 47%
21:00 +18°C° 0 mm 4 mps 757 mmHg 48%
22:00 +18°C° 0 mm 4 mps 757 mmHg 48%
23:00 +17°C° 0 mm 5 mps 757 mmHg 48%

7 December, Monday

Time Temperature Precipitation Wind Pressure Humidity
00:00 +16°C° 0 mm 5 mps 757 mmHg 48%
01:00 +16°C° 0 mm 5 mps 757 mmHg 48%
02:00 +16°C° 0 mm 5 mps 757 mmHg 47%
03:00 +15°C° 0 mm 5 mps 757 mmHg 47%
04:00 +15°C° 0 mm 5 mps 758 mmHg 49%
05:00 +15°C° 0 mm 5 mps 758 mmHg 50%
06:00 +14°C° 0 mm 5 mps 758 mmHg 51%
07:00 +15°C° 0 mm 5 mps 759 mmHg 49%
08:00 +16°C° 0 mm 5 mps 759 mmHg 48%
09:00 +16°C° 0 mm 5 mps 759 mmHg 46%
10:00 +17°C° 0 mm 5 mps 759 mmHg 43%
11:00 +19°C° 0 mm 5 mps 759 mmHg 39%
12:00 +20°C° 0 mm 5 mps 759 mmHg 36%
13:00 +20°C° 0 mm 5 mps 759 mmHg 34%
14:00 +21°C° 0 mm 5 mps 759 mmHg 32%
15:00 +21°C° 0 mm 5 mps 758 mmHg 30%
16:00 +20°C° 0 mm 5 mps 759 mmHg 32%
17:00 +19°C° 0 mm 4 mps 759 mmHg 35%
18:00 +18°C° 0 mm 4 mps 759 mmHg 38%
19:00 +18°C° 0 mm 4 mps 759 mmHg 39%
20:00 +17°C° 0 mm 4 mps 759 mmHg 41%
21:00 +16°C° 0 mm 5 mps 759 mmHg 43%
22:00 +16°C° 0 mm 5 mps 759 mmHg 44%
23:00 +15°C° 0 mm 5 mps 759 mmHg 45%
Show more